Buoy 46928

sailwx.info

Track history (hours):
 
Tides and Currents Weather Stations Pressure Air Temp Water Temp Dewpoint Dewpoint Depression Visibility Wind Speed Wind Dir Waves Ship Positions

Drifting buoy 46928

Last reported at 2014-Oct-25 20:30 UTC. Time now 2014-Oct-25 23:42 UTC.
Position N 45°37' W 148°28'.

Barometer 1019.0 mb
Water temperature 12.2 ° C

Date/timePositionNaut miles runAvg speedWind from/ knotsBaromVisibWave heightAir tempDewpointWater temp
2014-Oct-25 20:30N 45°37' W 148°28'1 1.4 1019.0 12.2
2014-Oct-25 19:30N 45°37' W 148°30'1 0.1 1019.5 12.1
2014-Oct-25 14:30N 45°36' W 148°30'0 0.1 1020.5 12.1
2014-Oct-25 13:30N 45°36' W 148°29'0 0.0 1020.7 12.1
2014-Oct-25 12:30N 45°36' W 148°29'0 0.3 1021.0 12.1
2014-Oct-25 11:30N 45°37' W 148°30'3 0.6 1021.5 12.1
2014-Oct-25 05:30N 45°40' W 148°32'1 1.1 1023.6 12.1
2014-Oct-25 04:30N 45°40' W 148°33'1 0.7 1023.7 12.1
2014-Oct-25 02:30N 45°41' W 148°35'0 0.0 1023.3 12.1
2014-Oct-25 01:30N 45°41' W 148°35'1 0.8 1023.5 12.1
2014-Oct-25 00:30N 45°40' W 148°36'0 0.0 1023.4 12.1
2014-Oct-24 23:30N 45°40' W 148°36'1 0.9 1023.3 12.1
2014-Oct-24 22:30N 45°40' W 148°37'0 0.0 1023.7 12.1
2014-Oct-24 21:30N 45°40' W 148°37'2 0.5 1024.0 12.1
2014-Oct-24 17:30N 45°41' W 148°34'1 0.8 1023.2 12.0
2014-Oct-24 16:30N 45°42' W 148°34'1 0.7 1023.0 12.0
2014-Oct-24 15:30N 45°43' W 148°34'1 1.2 1022.7 12.0
2014-Oct-24 14:30N 45°44' W 148°35'1 1.3 1022.4 12.0
2014-Oct-24 13:30N 45°44' W 148°36'4 2.2 1022.1 12.0
2014-Oct-24 11:30N 45°45' W 148°43'0 0.0 1021.6 12.1
2014-Oct-24 06:30N 45°45' W 148°42'0 0.1 1019.4 12.2
2014-Oct-24 05:30N 45°45' W 148°43'2 1.6 1018.5 12.3
2014-Oct-24 04:30N 45°46' W 148°41'1 0.6 1017.7 12.3
2014-Oct-24 02:30N 45°48' W 148°41'0 0.0 1015.1 12.4
2014-Oct-24 01:30N 45°48' W 148°41'1 0.6 1014.1 12.4
2014-Oct-23 23:30N 45°49' W 148°41'2 2.1 1012.3 12.4
2014-Oct-23 22:30N 45°51' W 148°42'4 1.9 1011.9 12.4
2014-Oct-23 20:30N 45°54' W 148°44'2 0.3 1010.9 12.4
2014-Oct-23 15:30N 45°54' W 148°47'1 1.3 1008.5 12.3
2014-Oct-23 14:30N 45°55' W 148°48'1 0.8 1008.1 12.3
2014-Oct-23 13:30N 45°54' W 148°48'1 0.6 1007.2 12.3
2014-Oct-23 11:30N 45°56' W 148°48'0 0.0 1006.0 12.3
2014-Oct-23 07:30N 45°56' W 148°48'2 1.6 1004.4 12.3
2014-Oct-23 06:30N 45°57' W 148°50'0 0.4 1003.9 12.3
2014-Oct-23 05:30N 45°56' W 148°50'1 0.6 1003.7 12.3
2014-Oct-23 03:30N 45°57' W 148°51'3 1.7 1003.4 12.3
2014-Oct-23 01:30N 45°60' W 148°54'2 0.8 1003.4 12.3
2014-Oct-22 23:30N 45°59' W 148°56'2 0.4 1003.6 12.3
2014-Oct-22 17:30N 46°01' W 148°58'1 0.4 1003.0 12.2
2014-Oct-22 15:30N 46°01' W 148°59'2 0.9 1002.2 12.2
2014-Oct-22 13:30N 46°03' W 149°00'3 1.6 1001.9 12.2
2014-Oct-22 11:30N 46°05' W 149°03'0 0.1 1001.7 12.2
2014-Oct-22 07:30N 46°05' W 149°03'3 0.9 1001.4 12.3
2014-Oct-22 03:30N 46°05' W 149°08'1 1.1 1000.9 12.3
2014-Oct-22 02:30N 46°05' W 149°09'0 0.0 1001.1 12.4
2014-Oct-22 01:30N 46°05' W 149°09'1 0.9 1000.7 12.4
2014-Oct-22 00:30N 46°05' W 149°08'3 0.6 1000.4 12.4
2014-Oct-21 19:30N 46°08' W 149°09'5 1.0 998.4 12.4
2014-Oct-21 14:30N 46°10' W 149°16'1 0.5 997.2 12.4
2014-Oct-21 12:30N 46°10' W 149°17'2 0.8 998.2 12.4
2014-Oct-21 10:30N 46°09' W 149°19'0 0.2 999.3 12.4
2014-Oct-21 07:30N 46°10' W 149°19'0 0.2 1000.1 12.5
2014-Oct-21 06:30N 46°10' W 149°19'2 2.0 1000.3 12.5
2014-Oct-21 05:30N 46°11' W 149°22'0 0.0 1000.1 12.5
2014-Oct-21 04:30N 46°11' W 149°22'1 0.6 1000.1 12.5
2014-Oct-21 03:30N 46°11' W 149°22'3 1.4 999.6 12.5
2014-Oct-21 01:30N 46°14' W 149°23'0 0.0 998.8 12.5
2014-Oct-21 00:30N 46°14' W 149°23'1 0.6 998.4 12.5
2014-Oct-20 23:30N 46°14' W 149°24'3 1.3 998.0 12.5
2014-Oct-20 21:30N 46°15' W 149°27'1 0.7 997.5 12.5
2014-Oct-20 19:30N 46°16' W 149°29'2 1.2 997.0 12.4
2014-Oct-20 17:30N 46°17' W 149°32'0 0.4 996.3 12.4
2014-Oct-20 16:30N 46°17' W 149°33'1 0.7 995.7 12.4
2014-Oct-20 14:30N 46°17' W 149°35'0 0.3 994.4 12.4
2014-Oct-20 13:30N 46°17' W 149°34'0 0.0 994.4 12.4
2014-Oct-20 12:30N 46°17' W 149°34'1 1.5 995.9 12.5
2014-Oct-20 11:30N 46°18' W 149°36'2 2.4 997.6 12.5
2014-Oct-20 10:30N 46°20' W 149°38'0 0.0 999.9 12.5
2014-Oct-20 09:30N 46°20' W 149°38'2 1.0 1001.5 12.5
2014-Oct-20 07:30N 46°20' W 149°41'2 0.9 1004.7 12.5
2014-Oct-20 05:30N 46°20' W 149°44'1 1.5 1007.0 12.5
2014-Oct-20 04:30N 46°20' W 149°46'2 0.8 1007.8 12.5
2014-Oct-20 02:30N 46°19' W 149°47'1 0.6 1008.8 12.5
2014-Oct-20 01:30N 46°18' W 149°48'0 0.1 1009.1 12.6
2014-Oct-19 21:30N 46°18' W 149°48'4 4.5 1009.0 12.6
2014-Oct-19 20:30N 46°23' W 149°47'1 0.3 1008.7 12.6
2014-Oct-19 16:30N 46°24' W 149°48'0 0.4 1006.4 12.7
2014-Oct-19 15:30N 46°24' W 149°48'2 2.1 1005.8 12.7
2014-Oct-19 14:30N 46°26' W 149°50'5 1.2 1005.2 12.8
2014-Oct-19 10:30N 46°26' W 149°57'0 0.0 1003.5 12.8
2014-Oct-19 08:30N 46°26' W 149°57'1 0.5 1002.3 12.8
2014-Oct-19 05:30N 46°26' W 149°55'4 1.0 1000.1 12.8
2014-Oct-19 01:30N 46°30' W 149°54'2 1.9 994.9 12.8
2014-Oct-19 00:30N 46°31' W 149°56'2 2.2 993.9 12.8
2014-Oct-18 23:30N 46°34' W 149°56'0 0.0 992.9 12.8
2014-Oct-18 22:30N 46°34' W 149°56'3 1.5 992.1 12.8
2014-Oct-18 20:30N 46°35' W 149°60'2 1.1 990.4 12.8
2014-Oct-18 18:30N 46°35' W 150°03'0 0.0 987.2 12.8
2014-Oct-18 17:30N 46°35' W 150°03'1 0.9 986.1 12.8
2014-Oct-18 16:30N 46°35' W 150°02'1 0.3 984.5 12.8
2014-Oct-18 14:30N 46°34' W 150°03'1 0.4 982.7 12.8
2014-Oct-18 12:30N 46°35' W 150°03'0 0.0 982.7 12.8
2014-Oct-18 11:30N 46°35' W 150°03'3 3.3 983.7 12.8
2014-Oct-18 10:30N 46°38' W 150°04'0 0.0 984.1 12.8
2014-Oct-18 07:30N 46°38' W 150°04'2 1.0 984.1 12.8
2014-Oct-18 05:30N 46°40' W 150°05'5 1.8 982.9 12.8
2014-Oct-18 02:30N 46°39' W 150°13'4 1.9 980.0 12.8
2014-Oct-18 00:30N 46°36' W 150°15'2 0.8 979.6 12.8
2014-Oct-17 22:30N 46°36' W 150°13'0 0.0 980.9 12.8
2014-Oct-17 21:30N 46°36' W 150°13'0 0.2 982.0 12.8
2014-Oct-17 20:30N 46°36' W 150°13'0 0.0 982.7 12.8
2014-Oct-17 19:30N 46°36' W 150°13'2 0.7 983.5 12.8
2014-Oct-17 16:30N 46°38' W 150°13'2 1.7 985.8 12.8
2014-Oct-17 15:30N 46°39' W 150°15'1 1.5 986.7 12.8
2014-Oct-17 14:30N 46°38' W 150°17'2 1.0 987.4 12.8
2014-Oct-17 12:30N 46°38' W 150°20'3 0.8 988.1 12.8
2014-Oct-17 08:30N 46°35' W 150°23'0 0.5 994.8 12.8
2014-Oct-17 07:30N 46°35' W 150°22'1 0.4 996.2 12.8
2014-Oct-17 04:30N 46°34' W 150°21'0 0.3 999.9 12.9
2014-Oct-17 03:30N 46°33' W 150°21'1 0.7 1000.5 12.9
2014-Oct-17 02:30N 46°34' W 150°21'2 0.8 1001.3 12.9
2014-Oct-17 00:30N 46°36' W 150°22'4 0.4 1002.9 12.9
2014-Oct-16 13:30N 46°33' W 150°27'5 0.6 1004.5 12.8
2014-Oct-16 05:30N 46°39' W 150°27'3 0.5 1002.0 12.9
2014-Oct-16 00:30N 46°37' W 150°29'0 0.4 999.0 12.9
2014-Oct-15 23:30N 46°37' W 150°30'2 0.9 998.8 12.9
2014-Oct-15 21:30N 46°35' W 150°28'   998.7 12.9
Track history (hours):
 
Tides and Currents Weather Stations Pressure Air Temp Water Temp Dewpoint Dewpoint Depression Visibility Wind Speed Wind Dir Waves Ship Positions

Drifting buoy 46928

Last reported at 2014-Oct-25 20:30 UTC. Time now 2014-Oct-25 23:42 UTC.
Position N 45°37' W 148°28'.

Barometer 1019.0 mb
Water temperature 12.2 ° C

Date/timePositionNaut miles runAvg speedWind from/ knotsBaromVisibWave heightAir tempDewpointWater temp
2014-Oct-25 20:30N 45°37' W 148°28'1 1.4 1019.0 12.2
2014-Oct-25 19:30N 45°37' W 148°30'1 0.1 1019.5 12.1
2014-Oct-25 14:30N 45°36' W 148°30'0 0.1 1020.5 12.1
2014-Oct-25 13:30N 45°36' W 148°29'0 0.0 1020.7 12.1
2014-Oct-25 12:30N 45°36' W 148°29'0 0.3 1021.0 12.1
2014-Oct-25 11:30N 45°37' W 148°30'3 0.6 1021.5 12.1
2014-Oct-25 05:30N 45°40' W 148°32'1 1.1 1023.6 12.1
2014-Oct-25 04:30N 45°40' W 148°33'1 0.7 1023.7 12.1
2014-Oct-25 02:30N 45°41' W 148°35'0 0.0 1023.3 12.1
2014-Oct-25 01:30N 45°41' W 148°35'1 0.8 1023.5 12.1
2014-Oct-25 00:30N 45°40' W 148°36'0 0.0 1023.4 12.1
2014-Oct-24 23:30N 45°40' W 148°36'1 0.9 1023.3 12.1
2014-Oct-24 22:30N 45°40' W 148°37'0 0.0 1023.7 12.1
2014-Oct-24 21:30N 45°40' W 148°37'2 0.5 1024.0 12.1
2014-Oct-24 17:30N 45°41' W 148°34'1 0.8 1023.2 12.0
2014-Oct-24 16:30N 45°42' W 148°34'1 0.7 1023.0 12.0
2014-Oct-24 15:30N 45°43' W 148°34'1 1.2 1022.7 12.0
2014-Oct-24 14:30N 45°44' W 148°35'1 1.3 1022.4 12.0
2014-Oct-24 13:30N 45°44' W 148°36'4 2.2 1022.1 12.0
2014-Oct-24 11:30N 45°45' W 148°43'0 0.0 1021.6 12.1
2014-Oct-24 06:30N 45°45' W 148°42'0 0.1 1019.4 12.2
2014-Oct-24 05:30N 45°45' W 148°43'2 1.6 1018.5 12.3
2014-Oct-24 04:30N 45°46' W 148°41'1 0.6 1017.7 12.3
2014-Oct-24 02:30N 45°48' W 148°41'0 0.0 1015.1 12.4
2014-Oct-24 01:30N 45°48' W 148°41'1 0.6 1014.1 12.4
2014-Oct-23 23:30N 45°49' W 148°41'2 2.1 1012.3 12.4
2014-Oct-23 22:30N 45°51' W 148°42'4 1.9 1011.9 12.4
2014-Oct-23 20:30N 45°54' W 148°44'2 0.3 1010.9 12.4
2014-Oct-23 15:30N 45°54' W 148°47'1 1.3 1008.5 12.3
2014-Oct-23 14:30N 45°55' W 148°48'1 0.8 1008.1 12.3
2014-Oct-23 13:30N 45°54' W 148°48'1 0.6 1007.2 12.3
2014-Oct-23 11:30N 45°56' W 148°48'0 0.0 1006.0 12.3
2014-Oct-23 07:30N 45°56' W 148°48'2 1.6 1004.4 12.3
2014-Oct-23 06:30N 45°57' W 148°50'0 0.4 1003.9 12.3
2014-Oct-23 05:30N 45°56' W 148°50'1 0.6 1003.7 12.3
2014-Oct-23 03:30N 45°57' W 148°51'3 1.7 1003.4 12.3
2014-Oct-23 01:30N 45°60' W 148°54'2 0.8 1003.4 12.3
2014-Oct-22 23:30N 45°59' W 148°56'2 0.4 1003.6 12.3
2014-Oct-22 17:30N 46°01' W 148°58'1 0.4 1003.0 12.2
2014-Oct-22 15:30N 46°01' W 148°59'2 0.9 1002.2 12.2
2014-Oct-22 13:30N 46°03' W 149°00'3 1.6 1001.9 12.2
2014-Oct-22 11:30N 46°05' W 149°03'0 0.1 1001.7 12.2
2014-Oct-22 07:30N 46°05' W 149°03'3 0.9 1001.4 12.3
2014-Oct-22 03:30N 46°05' W 149°08'1 1.1 1000.9 12.3
2014-Oct-22 02:30N 46°05' W 149°09'0 0.0 1001.1 12.4
2014-Oct-22 01:30N 46°05' W 149°09'1 0.9 1000.7 12.4
2014-Oct-22 00:30N 46°05' W 149°08'3 0.6 1000.4 12.4
2014-Oct-21 19:30N 46°08' W 149°09'5 1.0 998.4 12.4
2014-Oct-21 14:30N 46°10' W 149°16'1 0.5 997.2 12.4
2014-Oct-21 12:30N 46°10' W 149°17'2 0.8 998.2 12.4
2014-Oct-21 10:30N 46°09' W 149°19'0 0.2 999.3 12.4
2014-Oct-21 07:30N 46°10' W 149°19'0 0.2 1000.1 12.5
2014-Oct-21 06:30N 46°10' W 149°19'2 2.0 1000.3 12.5
2014-Oct-21 05:30N 46°11' W 149°22'0 0.0 1000.1 12.5
2014-Oct-21 04:30N 46°11' W 149°22'1 0.6 1000.1 12.5
2014-Oct-21 03:30N 46°11' W 149°22'3 1.4 999.6 12.5
2014-Oct-21 01:30N 46°14' W 149°23'0 0.0 998.8 12.5
2014-Oct-21 00:30N 46°14' W 149°23'1 0.6 998.4 12.5
2014-Oct-20 23:30N 46°14' W 149°24'3 1.3 998.0 12.5
2014-Oct-20 21:30N 46°15' W 149°27'1 0.7 997.5 12.5
2014-Oct-20 19:30N 46°16' W 149°29'2 1.2 997.0 12.4
2014-Oct-20 17:30N 46°17' W 149°32'0 0.4 996.3 12.4
2014-Oct-20 16:30N 46°17' W 149°33'1 0.7 995.7 12.4
2014-Oct-20 14:30N 46°17' W 149°35'0 0.3 994.4 12.4
2014-Oct-20 13:30N 46°17' W 149°34'0 0.0 994.4 12.4
2014-Oct-20 12:30N 46°17' W 149°34'1 1.5 995.9 12.5
2014-Oct-20 11:30N 46°18' W 149°36'2 2.4 997.6 12.5
2014-Oct-20 10:30N 46°20' W 149°38'0 0.0 999.9 12.5
2014-Oct-20 09:30N 46°20' W 149°38'2 1.0 1001.5 12.5
2014-Oct-20 07:30N 46°20' W 149°41'2 0.9 1004.7 12.5
2014-Oct-20 05:30N 46°20' W 149°44'1 1.5 1007.0 12.5
2014-Oct-20 04:30N 46°20' W 149°46'2 0.8 1007.8 12.5
2014-Oct-20 02:30N 46°19' W 149°47'1 0.6 1008.8 12.5
2014-Oct-20 01:30N 46°18' W 149°48'0 0.1 1009.1 12.6
2014-Oct-19 21:30N 46°18' W 149°48'4 4.5 1009.0 12.6
2014-Oct-19 20:30N 46°23' W 149°47'1 0.3 1008.7 12.6
2014-Oct-19 16:30N 46°24' W 149°48'0 0.4 1006.4 12.7
2014-Oct-19 15:30N 46°24' W 149°48'2 2.1 1005.8 12.7
2014-Oct-19 14:30N 46°26' W 149°50'5 1.2 1005.2 12.8
2014-Oct-19 10:30N 46°26' W 149°57'0 0.0 1003.5 12.8
2014-Oct-19 08:30N 46°26' W 149°57'1 0.5 1002.3 12.8
2014-Oct-19 05:30N 46°26' W 149°55'4 1.0 1000.1 12.8
2014-Oct-19 01:30N 46°30' W 149°54'2 1.9 994.9 12.8
2014-Oct-19 00:30N 46°31' W 149°56'2 2.2 993.9 12.8
2014-Oct-18 23:30N 46°34' W 149°56'0 0.0 992.9 12.8
2014-Oct-18 22:30N 46°34' W 149°56'3 1.5 992.1 12.8
2014-Oct-18 20:30N 46°35' W 149°60'2 1.1 990.4 12.8
2014-Oct-18 18:30N 46°35' W 150°03'0 0.0 987.2 12.8
2014-Oct-18 17:30N 46°35' W 150°03'1 0.9 986.1 12.8
2014-Oct-18 16:30N 46°35' W 150°02'1 0.3 984.5 12.8
2014-Oct-18 14:30N 46°34' W 150°03'1 0.4 982.7 12.8
2014-Oct-18 12:30N 46°35' W 150°03'0 0.0 982.7 12.8
2014-Oct-18 11:30N 46°35' W 150°03'3 3.3 983.7 12.8
2014-Oct-18 10:30N 46°38' W 150°04'0 0.0 984.1 12.8
2014-Oct-18 07:30N 46°38' W 150°04'2 1.0 984.1 12.8
2014-Oct-18 05:30N 46°40' W 150°05'5 1.8 982.9 12.8
2014-Oct-18 02:30N 46°39' W 150°13'4 1.9 980.0 12.8
2014-Oct-18 00:30N 46°36' W 150°15'2 0.8 979.6 12.8
2014-Oct-17 22:30N 46°36' W 150°13'0 0.0 980.9 12.8
2014-Oct-17 21:30N 46°36' W 150°13'0 0.2 982.0 12.8
2014-Oct-17 20:30N 46°36' W 150°13'0 0.0 982.7 12.8
2014-Oct-17 19:30N 46°36' W 150°13'2 0.7 983.5 12.8
2014-Oct-17 16:30N 46°38' W 150°13'2 1.7 985.8 12.8
2014-Oct-17 15:30N 46°39' W 150°15'1 1.5 986.7 12.8
2014-Oct-17 14:30N 46°38' W 150°17'2 1.0 987.4 12.8
2014-Oct-17 12:30N 46°38' W 150°20'3 0.8 988.1 12.8
2014-Oct-17 08:30N 46°35' W 150°23'0 0.5 994.8 12.8
2014-Oct-17 07:30N 46°35' W 150°22'1 0.4 996.2 12.8
2014-Oct-17 04:30N 46°34' W 150°21'0 0.3 999.9 12.9
2014-Oct-17 03:30N 46°33' W 150°21'1 0.7 1000.5 12.9
2014-Oct-17 02:30N 46°34' W 150°21'2 0.8 1001.3 12.9
2014-Oct-17 00:30N 46°36' W 150°22'4 0.4 1002.9 12.9
2014-Oct-16 13:30N 46°33' W 150°27'5 0.6 1004.5 12.8
2014-Oct-16 05:30N 46°39' W 150°27'3 0.5 1002.0 12.9
2014-Oct-16 00:30N 46°37' W 150°29'0 0.4 999.0 12.9
2014-Oct-15 23:30N 46°37' W 150°30'2 0.9 998.8 12.9
2014-Oct-15 21:30N 46°35' W 150°28'   998.7 12.9

Dump ship's entire track history